| time (UTC) | temp C | wind direction | speed KPH | gust KPH | rain 1hr cm | rain 24hr cm | rain mn cm | humidity % | barometer mb |
| 20260506222537 | 16 | 293 | 8.0 | 14.5 | 0.05 | 0.23 | 0.23 | 79 | 1013.1 |
| 20260506221517 | 17 | 293 | 6.4 | 14.5 | 0.00 | 0.18 | 0.18 | 77 | 1013.4 |
| 20260506220517 | 17 | 315 | 8.0 | 17.7 | 0.00 | 0.18 | 0.18 | 75 | 1012.7 |
| 20260506215517 | 17 | 293 | 9.7 | 16.1 | 0.00 | 0.18 | 0.18 | 75 | 1013.0 |
| 20260506214517 | 17 | 315 | 6.4 | 19.3 | 0.00 | 0.18 | 0.18 | 75 | 1013.2 |
| 20260506213516 | 17 | 315 | 8.0 | 16.1 | 0.00 | 0.18 | 0.18 | 75 | 1013.0 |
| 20260506212517 | 16 | 293 | 8.0 | 16.1 | 0.00 | 0.18 | 0.18 | 75 | 1013.2 |
| 20260506211517 | 16 | 293 | 4.8 | 14.5 | 0.00 | 0.18 | 0.18 | 76 | 1013.1 |
| 20260506210517 | 16 | 315 | 6.4 | 14.5 | 0.00 | 0.18 | 0.18 | 76 | 1012.8 |
| 20260506205517 | 16 | 293 | 8.0 | 17.7 | 0.00 | 0.18 | 0.18 | 76 | 1013.1 |
| 20260506204517 | 16 | 293 | 4.8 | 14.5 | 0.00 | 0.18 | 0.18 | 78 | 1013.2 |
| 20260506203517 | 16 | 315 | 4.8 | 11.3 | 0.00 | 0.18 | 0.18 | 79 | 1013.2 |
| 20260506202517 | 16 | 315 | 6.4 | 14.5 | 0.00 | 0.18 | 0.18 | 79 | 1013.4 |
| 20260506201517 | 15 | 293 | 9.7 | 19.3 | 0.00 | 0.18 | 0.18 | 79 | 1013.4 |
| 20260506200516 | 15 | 293 | 9.7 | 19.3 | 0.00 | 0.18 | 0.18 | 79 | 1013.6 |
| 20260506195517 | 15 | 315 | 6.4 | 16.1 | 0.00 | 0.18 | 0.18 | 82 | 1013.7 |
| 20260506194517 | 15 | 315 | 3.2 | 8.0 | 0.00 | 0.18 | 0.18 | 83 | 1013.9 |
| 20260506193517 | 14 | 315 | 9.7 | 19.3 | 0.00 | 0.18 | 0.18 | 83 | 1014.0 |
| 20260506192517 | 14 | 270 | 6.4 | 16.1 | 0.00 | 0.18 | 0.18 | 84 | 1014.2 |
| 20260506191537 | 14 | 315 | 4.8 | 14.5 | 0.00 | 0.18 | 0.18 | 86 | 1014.0 |
| 20260506190517 | 13 | 315 | 8.0 | 16.1 | 0.00 | 0.18 | 0.18 | 86 | 1014.2 |
| 20260506185517 | 13 | 293 | 4.8 | 14.5 | 0.00 | 0.18 | 0.18 | 86 | 1014.4 |
| 20260506184517 | 13 | 270 | 6.4 | 12.9 | 0.00 | 0.18 | 0.18 | 87 | 1014.5 |
| 20260506183517 | 12 | 293 | 4.8 | 17.7 | 0.00 | 0.18 | 0.18 | 87 | 1014.6 |
| 20260506182517 | 12 | 270 | 3.2 | 9.7 | 0.00 | 0.18 | 0.18 | 87 | 1014.8 |
| 20260506181516 | 12 | 315 | 3.2 | 14.5 | 0.00 | 0.18 | 0.18 | 88 | 1014.3 |
| 20260506180517 | 12 | 315 | 8.0 | 19.3 | 0.00 | 0.18 | 0.18 | 89 | 1013.7 |
| 20260506175516 | 12 | 293 | 17.7 | 25.7 | 0.00 | 0.18 | 0.18 | 89 | 1013.0 |
| 20260506174517 | 12 | 315 | 14.5 | 22.5 | 0.00 | 0.18 | 0.18 | 90 | 1012.9 |
| 20260506173516 | 12 | 315 | 14.5 | 24.1 | 0.00 | 0.18 | 0.18 | 90 | 1012.9 |
| 20260506172516 | 12 | 315 | 12.9 | 25.7 | 0.00 | 0.18 | 0.18 | 91 | 1013.2 |
| 20260506171517 | 12 | 315 | 9.7 | 17.7 | 0.00 | 0.18 | 0.18 | 91 | 1013.8 |
| 20260506170517 | 12 | 315 | 8.0 | 14.5 | 0.00 | 0.18 | 0.18 | 91 | 1013.7 |
| 20260506165516 | 12 | 315 | 8.0 | 16.1 | 0.00 | 0.18 | 0.18 | 91 | 1013.7 |
| 20260506164517 | 12 | 315 | 9.7 | 19.3 | 0.00 | 0.18 | 0.18 | 91 | 1014.0 |
| 20260506163517 | 12 | 315 | 8.0 | 17.7 | 0.00 | 0.18 | 0.18 | 91 | 1013.8 |
| 20260506162536 | 12 | 315 | 11.3 | 20.9 | 0.00 | 0.18 | 0.18 | 91 | 1013.4 |
| 20260506161517 | 12 | 315 | 9.7 | 22.5 | 0.00 | 0.18 | 0.18 | 92 | 1013.6 |
| 20260506160516 | 12 | 315 | 11.3 | 20.9 | 0.00 | 0.18 | 0.18 | 92 | 1013.3 |
| 20260506155517 | 12 | 315 | 9.7 | 17.7 | 0.00 | 0.18 | 0.18 | 92 | 1013.5 |
| 20260506154516 | 12 | 338 | 4.8 | 12.9 | 0.05 | 0.18 | 0.18 | 91 | 1013.4 |
| 20260506153536 | 11 | 315 | 6.4 | 17.7 | 0.18 | 0.18 | 0.18 | 91 | 1013.7 |
| 20260506152517 | 11 | 315 | 9.7 | 24.1 | 0.18 | 0.18 | 0.18 | 91 | 1013.0 |
| 20260506151516 | 11 | 315 | 4.8 | 14.5 | 0.18 | 0.18 | 0.18 | 90 | 1013.6 |
| 20260506150517 | 11 | 315 | 4.8 | 16.1 | 0.18 | 0.18 | 0.18 | 89 | 1014.1 |
| 20260506145537 | 11 | 293 | 8.0 | 17.7 | 0.18 | 0.18 | 0.18 | 88 | 1014.8 |
| 20260506144516 | 11 | 315 | 8.0 | 19.3 | 0.13 | 0.13 | 0.13 | 87 | 1014.1 |
| 20260506143536 | 11 | 293 | 1.6 | 14.5 | 0.00 | 0.00 | 0.00 | 86 | 1015.9 |
| 20260506142516 | 11 | 293 | 6.4 | 14.5 | 0.00 | 0.00 | 0.00 | 86 | 1015.4 |
| 20260506141516 | 11 | 293 | 14.5 | 25.7 | 0.00 | 0.00 | 0.00 | 85 | 1013.8 |
| 20260506140517 | 12 | 293 | 12.9 | 20.9 | 0.00 | 0.00 | 0.00 | 85 | 1013.3 |
| 20260506135516 | 12 | 293 | 9.7 | 24.1 | 0.00 | 0.00 | 0.00 | 84 | 1013.8 |
| 20260506134517 | 12 | 293 | 12.9 | 24.1 | 0.00 | 0.00 | 0.00 | 84 | 1013.6 |
| 20260506133517 | 12 | 315 | 14.5 | 24.1 | 0.00 | 0.00 | 0.00 | 83 | 1013.5 |
| 20260506132517 | 12 | 293 | 14.5 | 22.5 | 0.00 | 0.00 | 0.00 | 82 | 1013.2 |
| 20260506131516 | 12 | 293 | 12.9 | 24.1 | 0.00 | 0.00 | 0.00 | 82 | 1012.9 |
| 20260506130516 | 12 | 315 | 12.9 | 22.5 | 0.00 | 0.00 | 0.00 | 81 | 1012.7 |
| 20260506125517 | 12 | 315 | 12.9 | 22.5 | 0.00 | 0.00 | 0.00 | 81 | 1012.4 |
| 20260506124516 | 12 | 315 | 14.5 | 24.1 | 0.00 | 0.00 | 0.00 | 80 | 1012.2 |
| 20260506123516 | 12 | 315 | 11.3 | 20.9 | 0.00 | 0.00 | 0.00 | 81 | 1012.3 |
| 20260506122517 | 13 | 315 | 14.5 | 25.7 | 0.00 | 0.00 | 0.00 | 81 | 1012.2 |
| 20260506121516 | 13 | 315 | 12.9 | 20.9 | 0.00 | 0.00 | 0.00 | 81 | 1012.1 |
| 20260506120516 | 13 | 315 | 12.9 | 25.7 | 0.00 | 0.00 | 0.00 | 80 | 1011.9 |
| 20260506115517 | 13 | 293 | 12.9 | 22.5 | 0.00 | 0.00 | 0.00 | 80 | 1012.1 |
| 20260506114516 | 13 | 315 | 16.1 | 25.7 | 0.00 | 0.00 | 0.00 | 80 | 1012.0 |
| 20260506113516 | 13 | 293 | 12.9 | 22.5 | 0.00 | 0.00 | 0.00 | 81 | 1011.8 |
| 20260506112516 | 13 | 315 | 11.3 | 22.5 | 0.00 | 0.00 | 0.00 | 81 | 1011.7 |
| 20260506111517 | 13 | 293 | 9.7 | 17.7 | 0.00 | 0.00 | 0.00 | 81 | 1011.6 |
| 20260506110537 | 13 | 315 | 11.3 | 19.3 | 0.00 | 0.00 | 0.00 | 81 | 1011.4 |
| 20260506105517 | 13 | 293 | 11.3 | 22.5 | 0.00 | 0.00 | 0.00 | 81 | 1011.6 |
| 20260506104536 | 13 | 315 | 14.5 | 22.5 | 0.00 | 0.00 | 0.00 | 81 | 1011.1 |
| 20260506103517 | 14 | 315 | 11.3 | 19.3 | 0.00 | 0.00 | 0.00 | 81 | 1011.0 |
| 20260506102516 | 14 | 315 | 9.7 | 16.1 | 0.00 | 0.00 | 0.00 | 81 | 1010.8 |
| 20260506101517 | 14 | 315 | 6.4 | 14.5 | 0.00 | 0.00 | 0.00 | 81 | 1010.6 |
| 20260506100516 | 14 | 293 | 9.7 | 16.1 | 0.00 | 0.00 | 0.00 | 80 | 1010.5 |
| 20260506095516 | 14 | 293 | 9.7 | 17.7 | 0.00 | 0.00 | 0.00 | 80 | 1010.4 |
| 20260506094536 | 15 | 293 | 12.9 | 22.5 | 0.00 | 0.00 | 0.00 | 80 | 1010.2 |
| 20260506093516 | 15 | 293 | 11.3 | 17.7 | 0.00 | 0.00 | 0.00 | 80 | 1010.1 |
| 20260506092536 | 15 | 293 | 9.7 | 16.1 | 0.00 | 0.00 | 0.00 | 80 | 1010.1 |
| 20260506091556 | 15 | 315 | 4.8 | 12.9 | 0.00 | 0.00 | 0.00 | 81 | 1010.0 |
| 20260506090517 | 15 | 315 | 8.0 | 17.7 | 0.00 | 0.00 | 0.00 | 81 | 1010.1 |
| 20260506085515 | 15 | 293 | 9.7 | 20.9 | 0.00 | 0.00 | 0.00 | 80 | 1009.9 |
| 20260506084515 | 15 | 315 | 6.4 | 14.5 | 0.00 | 0.00 | 0.00 | 80 | 1009.9 |
| 20260506083515 | 16 | 293 | 9.7 | 17.7 | 0.00 | 0.00 | 0.00 | 80 | 1009.9 |
| 20260506082515 | 16 | 293 | 11.3 | 16.1 | 0.00 | 0.00 | 0.00 | 80 | 1009.6 |
| 20260506081515 | 16 | 315 | 8.0 | 16.1 | 0.00 | 0.00 | 0.00 | 81 | 1009.6 |
| 20260506080515 | 16 | 315 | 9.7 | 17.7 | 0.00 | 0.00 | 0.00 | 81 | 1009.7 |
| 20260506072515 | 16 | 23 | 4.8 | 9.7 | 0.00 | 0.00 | 0.00 | 81 | 1009.3 |
| 20260506071515 | 16 | 338 | 6.4 | 9.7 | 0.00 | 0.00 | 0.00 | 81 | 1009.3 |
| 20260506070555 | 16 | 315 | 8.0 | 16.1 | 0.00 | 0.00 | 0.00 | 81 | 1009.1 |
| 20260506062515 | 16 | 338 | 9.7 | 17.7 | 0.00 | 0.00 | 0.00 | 81 | 1009.1 |
| 20260506061535 | 17 | 338 | 11.3 | 19.3 | 0.00 | 0.00 | 0.00 | 80 | 1009.1 |
| 20260506060515 | 17 | 315 | 11.3 | 20.9 | 0.00 | 0.00 | 0.00 | 80 | 1009.1 |
| 20260506050515 | 18 | 315 | 11.3 | 22.5 | 0.00 | 0.00 | 0.00 | 78 | 1009.2 |
| 20260506044515 | 19 | 315 | 12.9 | 20.9 | 0.00 | 0.00 | 0.00 | 77 | 1008.8 |
| 20260506043517 | 19 | 315 | 9.7 | 16.1 | 0.00 | 0.00 | 0.00 | 77 | 1008.9 |
| 20260506042517 | 19 | 293 | 9.7 | 16.1 | 0.00 | 0.00 | 0.00 | 77 | 1009.1 |
| 20260506041517 | 20 | 315 | 9.7 | 17.7 | 0.00 | 0.00 | 0.00 | 76 | 1009.0 |
| 20260506040557 | 20 | 315 | 12.9 | 19.3 | 0.00 | 0.00 | 0.00 | 75 | 1009.0 |
| 20260506035537 | 20 | 315 | 11.3 | 17.7 | 0.00 | 0.00 | 0.00 | 75 | 1008.8 |
| 20260506034537 | 20 | 293 | 9.7 | 19.3 | 0.00 | 0.00 | 0.00 | 74 | 1008.5 |
| 20260506033515 | 20 | 293 | 12.9 | 20.9 | 0.00 | 0.00 | 0.00 | 73 | 1008.5 |
| 20260506032517 | 20 | 315 | 12.9 | 20.9 | 0.00 | 0.00 | 0.00 | 73 | 1008.0 |
| 20260506031537 | 21 | 315 | 11.3 | 17.7 | 0.00 | 0.00 | 0.00 | 73 | 1007.7 |
| 20260506030517 | 21 | 315 | 11.3 | 22.5 | 0.00 | 0.00 | 0.00 | 72 | 1007.5 |
| 20260506025517 | 21 | 315 | 12.9 | 20.9 | 0.00 | 0.00 | 0.00 | 72 | 1007.4 |
| 20260506024517 | 21 | 315 | 9.7 | 17.7 | 0.00 | 0.00 | 0.00 | 72 | 1007.3 |
| 20260506023517 | 22 | 293 | 14.5 | 25.7 | 0.00 | 0.00 | 0.00 | 71 | 1007.2 |
| 20260506022515 | 22 | 315 | 12.9 | 22.5 | 0.00 | 0.00 | 0.00 | 71 | 1006.9 |
| 20260506021517 | 23 | 315 | 9.7 | 19.3 | 0.00 | 0.00 | 0.00 | 70 | 1006.8 |
| 20260506020517 | 23 | 293 | 9.7 | 17.7 | 0.00 | 0.00 | 0.00 | 70 | 1006.6 |
| 20260506015517 | 23 | 315 | 11.3 | 19.3 | 0.00 | 0.00 | 0.00 | 69 | 1006.2 |
| 20260506014515 | 23 | 315 | 11.3 | 19.3 | 0.00 | 0.00 | 0.00 | 69 | 1006.0 |
| 20260506013517 | 24 | 293 | 9.7 | 16.1 | 0.00 | 0.00 | 0.00 | 69 | 1005.7 |
| 20260506012557 | 24 | 315 | 11.3 | 17.7 | 0.00 | 0.00 | 0.00 | 67 | 1005.5 |
| 20260506011517 | 24 | 293 | 3.2 | 8.0 | 0.00 | 0.00 | 0.00 | 67 | 1005.2 |
| 20260506010517 | 25 | 315 | 6.4 | 14.5 | 0.00 | 0.00 | 0.00 | 65 | 1005.2 |
| 20260506005517 | 25 | 293 | 9.7 | 20.9 | 0.00 | 0.00 | 0.00 | 65 | 1005.3 |
| 20260506004517 | 25 | 315 | 8.0 | 12.9 | 0.00 | 0.00 | 0.00 | 65 | 1004.7 |
| 20260506003557 | 25 | 315 | 8.0 | 17.7 | 0.00 | 0.00 | 0.00 | 64 | 1004.6 |
| 20260506002517 | 25 | 315 | 9.7 | 16.1 | 0.00 | 0.00 | 0.00 | 64 | 1004.8 |
| 20260506001517 | 26 | 315 | 6.4 | 17.7 | 0.00 | 0.00 | 0.00 | 63 | 1004.8 |
| 20260506000537 | 26 | 293 | 9.7 | 20.9 | 0.00 | 0.00 | 0.00 | 62 | 1005.0 |
| 20260505235517 | 27 | 293 | 12.9 | 20.9 | 0.00 | 0.00 | 0.00 | 61 | 1004.8 |
| 20260505234517 | 27 | 315 | 14.5 | 22.5 | 0.00 | 0.00 | 0.00 | 60 | 1004.5 |
| 20260505233537 | 28 | 315 | 11.3 | 20.9 | 0.00 | 0.00 | 0.00 | 59 | 1004.5 |
| 20260505232517 | 29 | 315 | 12.9 | 20.9 | 0.00 | 0.00 | 0.00 | 56 | 1004.2 |
| 20260505231517 | 30 | 293 | 9.7 | 16.1 | 0.00 | 0.00 | 0.00 | 51 | 1004.1 |
| 20260505230517 | 31 | 293 | 11.3 | 22.5 | 0.00 | 0.00 | 0.00 | 50 | 1003.9 |
| 20260505225517 | 32 | 293 | 4.8 | 11.3 | 0.00 | 0.00 | 0.00 | 53 | 1003.9 |
| 20260505224517 | 32 | 270 | 3.2 | 9.7 | 0.00 | 0.00 | 0.00 | 52 | 1003.8 |
| 20260505223517 | 32 | 270 | 4.8 | 9.7 | 0.00 | 0.00 | 0.00 | 51 | 1003.7 |